UPS2969 PHLI-KSBD

Flight info

Callsign UPS2969
Flight time N/A
Altitude 39000
Route LIHUE6 BOOKE V15 CKH MAGGI R465 CIVIT R585 AUDIA MQO PMD ZIGGY8
Aircraft B763/H-V/N

Departure

Time 2026-04-16 02:54
Airport Lihue Airport (PHLI)

Arrival

Time N/A
Airport San Bernardino International Airport (KSBD)
Time Latitude Longitude Altitude Speed Heading
2026-04-16 02:34 21.98060 -159.34526 151 ft 0 kts 45°
2026-04-16 02:49 21.98062 -159.34525 151 ft 1 kts 48°
2026-04-16 02:49 21.98064 -159.34499 149 ft 5 kts 118°
2026-04-16 02:49 21.98032 -159.34454 146 ft 8 kts 134°
2026-04-16 02:49 21.97982 -159.34402 144 ft 10 kts 140°
2026-04-16 02:50 21.97923 -159.34383 144 ft 7 kts 200°
2026-04-16 02:50 21.97891 -159.34405 145 ft 4 kts 219°
2026-04-16 02:50 21.97863 -159.34433 146 ft 7 kts 224°
2026-04-16 02:50 21.97808 -159.34492 149 ft 13 kts 225°
2026-04-16 02:51 21.97732 -159.34575 155 ft 16 kts 225°
2026-04-16 02:51 21.97658 -159.34656 159 ft 13 kts 224°
2026-04-16 02:51 21.97597 -159.34720 161 ft 11 kts 225°
2026-04-16 02:51 21.97548 -159.34773 163 ft 8 kts 225°
2026-04-16 02:52 21.97510 -159.34814 165 ft 6 kts 225°
2026-04-16 02:52 21.97477 -159.34850 166 ft 6 kts 225°
2026-04-16 02:52 21.97442 -159.34886 166 ft 7 kts 225°
2026-04-16 02:52 21.97398 -159.34930 167 ft 9 kts 207°
2026-04-16 02:53 21.97338 -159.34917 166 ft 10 kts 134°
2026-04-16 02:53 21.97307 -159.34876 164 ft 3 kts 92°
2026-04-16 02:53 21.97325 -159.34850 163 ft 11 kts 47°
2026-04-16 02:53 21.97516 -159.34642 158 ft 74 kts 45°
2026-04-16 02:54 21.98041 -159.34079 127 ft 134 kts 45°
2026-04-16 02:54 21.98812 -159.33261 250 ft 167 kts 43°
2026-04-16 02:54 21.99667 -159.32426 800 ft 168 kts 44°
2026-04-16 02:54 22.00227 -159.31352 1369 ft 169 kts 80°
2026-04-16 02:55 22.00315 -159.29988 1601 ft 194 kts 90°
2026-04-16 02:55 22.00313 -159.28439 1832 ft 224 kts 90°
2026-04-16 02:55 22.00328 -159.26677 2133 ft 251 kts 89°
2026-04-16 02:55 22.00345 -159.24730 2758 ft 264 kts 89°
2026-04-16 02:56 22.00250 -159.22771 3609 ft 268 kts 103°
2026-04-16 02:56 21.99454 -159.20935 4027 ft 280 kts 127°
2026-04-16 02:56 21.97947 -159.19653 4355 ft 278 kts 157°
2026-04-16 02:56 21.96074 -159.19135 5122 ft 280 kts 170°
2026-04-16 02:57 21.94175 -159.18751 6027 ft 281 kts 169°
2026-04-16 02:57 21.92265 -159.18300 6812 ft 285 kts 161°
2026-04-16 02:57 21.90513 -159.17340 7594 ft 289 kts 149°
2026-04-16 02:57 21.88780 -159.16217 8376 ft 293 kts 149°
2026-04-16 02:58 21.87034 -159.15083 9149 ft 297 kts 150°
2026-04-16 02:58 21.85255 -159.13937 9918 ft 300 kts 150°
2026-04-16 02:58 21.83458 -159.12776 10443 ft 314 kts 149°
2026-04-16 02:58 21.81675 -159.11258 10468 ft 345 kts 134°
2026-04-16 02:59 21.80152 -159.09175 10993 ft 359 kts 125°
2026-04-16 02:59 21.78781 -159.06908 11826 ft 363 kts 122°
2026-04-16 02:59 21.77495 -159.04602 12602 ft 368 kts 121°
2026-04-16 02:59 21.76196 -159.02182 13387 ft 372 kts 120°
2026-04-16 03:00 21.74925 -158.99771 14147 ft 377 kts 120°
2026-04-16 03:00 21.73627 -158.97288 14907 ft 381 kts 119°
2026-04-16 03:00 21.72339 -158.94818 15652 ft 385 kts 119°
2026-04-16 03:00 21.71024 -158.92291 16395 ft 388 kts 119°
2026-04-16 03:01 21.69703 -158.89751 17119 ft 392 kts 118°
2026-04-16 03:01 21.68375 -158.87199 17828 ft 396 kts 118°
2026-04-16 03:01 21.67032 -158.84619 18529 ft 399 kts 118°
2026-04-16 03:01 21.65664 -158.81993 19221 ft 402 kts 118°
2026-04-16 03:02 21.64298 -158.79372 19907 ft 405 kts 118°
2026-04-16 03:02 21.62927 -158.76744 20573 ft 408 kts 118°
2026-04-16 03:02 21.61536 -158.74077 21240 ft 411 kts 118°
2026-04-16 03:02 21.60135 -158.71391 21891 ft 414 kts 117°
2026-04-16 03:03 21.58726 -158.68695 22534 ft 417 kts 117°
2026-04-16 03:03 21.57306 -158.65976 23165 ft 420 kts 117°
2026-04-16 03:03 21.55900 -158.63219 23784 ft 421 kts 114°
2026-04-16 03:03 21.54862 -158.60289 24369 ft 422 kts 103°
2026-04-16 03:04 21.54329 -158.57188 24965 ft 422 kts 93°
2026-04-16 03:04 21.54316 -158.54082 25527 ft 423 kts 83°
2026-04-16 03:04 21.54821 -158.50984 26081 ft 424 kts 73°
2026-04-16 03:04 21.55841 -158.48000 26618 ft 426 kts 63°
2026-04-16 03:05 21.57327 -158.45273 27126 ft 428 kts 54°
2026-04-16 03:05 21.59066 -158.42636 27620 ft 432 kts 58°
2026-04-16 03:05 21.60398 -158.39766 28131 ft 435 kts 68°
2026-04-16 03:05 21.61269 -158.36662 28637 ft 438 kts 76°
2026-04-16 03:06 21.61895 -158.33466 29122 ft 442 kts 78°
2026-04-16 03:06 21.62485 -158.30205 29604 ft 445 kts 79°
2026-04-16 03:06 21.63608 -158.23630 30562 ft 451 kts 79°
2026-04-16 03:07 21.64161 -158.20314 31010 ft 454 kts 79°
2026-04-16 03:07 21.64716 -158.16960 31476 ft 457 kts 80°
2026-04-16 03:07 21.65266 -158.13620 31921 ft 460 kts 80°
2026-04-16 03:07 21.65911 -158.10220 32349 ft 463 kts 75°
2026-04-16 03:08 21.67019 -158.06975 32916 ft 462 kts 65°
2026-04-16 03:08 21.68530 -158.03947 33470 ft 461 kts 62°
2026-04-16 03:08 21.69984 -158.00929 33982 ft 461 kts 64°
2026-04-16 03:08 21.71366 -157.97790 34516 ft 459 kts 66°
2026-04-16 03:09 21.72671 -157.94699 35049 ft 458 kts 66°
2026-04-16 03:09 21.73948 -157.91599 35559 ft 456 kts 67°
2026-04-16 03:09 21.75214 -157.88481 36021 ft 454 kts 67°
2026-04-16 03:09 21.76468 -157.85375 36432 ft 454 kts 67°
2026-04-16 03:10 21.77716 -157.82266 36793 ft 454 kts 67°
2026-04-16 03:10 21.78974 -157.79128 37131 ft 454 kts 67°
2026-04-16 03:10 21.80216 -157.76024 37456 ft 453 kts 67°
2026-04-16 03:10 21.81455 -157.72922 37761 ft 453 kts 67°
2026-04-16 03:11 21.82707 -157.69786 38040 ft 453 kts 67°
2026-04-16 03:11 21.83938 -157.66702 38318 ft 453 kts 67°
2026-04-16 03:11 21.85176 -157.63599 38566 ft 453 kts 67°
2026-04-16 03:11 21.86425 -157.60463 38802 ft 453 kts 67°
2026-04-16 03:12 21.87655 -157.57376 39028 ft 452 kts 67°
2026-04-16 03:12 21.90134 -157.51143 39053 ft 453 kts 67°
2026-04-16 03:13 21.92589 -157.44965 39045 ft 443 kts 67°
2026-04-16 03:13 21.94991 -157.38910 39055 ft 444 kts 67°
2026-04-16 03:14 21.97423 -157.32776 39058 ft 447 kts 68°
2026-04-16 03:14 21.99860 -157.26619 39056 ft 449 kts 68°
2026-04-16 03:15 22.02310 -157.20421 39055 ft 448 kts 68°
2026-04-16 03:15 22.04746 -157.14252 39060 ft 448 kts 68°
2026-04-16 03:16 22.07163 -157.08121 39066 ft 446 kts 68°
2026-04-16 03:16 22.09576 -157.01993 39073 ft 445 kts 68°
2026-04-16 03:17 22.11994 -156.95845 39080 ft 444 kts 68°
2026-04-16 03:17 22.14392 -156.89739 39082 ft 444 kts 68°
2026-04-16 03:18 22.16792 -156.83620 39082 ft 445 kts 68°
2026-04-16 03:18 22.19187 -156.77507 39082 ft 444 kts 68°
2026-04-16 03:19 22.21577 -156.71399 39081 ft 444 kts 68°
2026-04-16 03:19 22.23974 -156.65262 39081 ft 444 kts 68°
2026-04-16 03:20 22.26370 -156.59122 39080 ft 444 kts 68°
2026-04-16 03:20 22.28748 -156.53020 39081 ft 444 kts 68°
2026-04-16 03:21 22.31132 -156.46895 39079 ft 444 kts 68°
2026-04-16 03:21 22.33519 -156.40755 39078 ft 445 kts 68°
2026-04-16 03:22 22.35913 -156.34586 39077 ft 444 kts 68°
2026-04-16 03:22 22.38290 -156.28456 39082 ft 444 kts 68°
2026-04-16 03:23 22.40672 -156.22302 39084 ft 444 kts 68°
2026-04-16 03:23 22.43052 -156.16147 39078 ft 444 kts 68°